Location: D?dup?dup?lem
(16.2907°N, 80.8328°E)
Time: 12:03:36
(UTC+00:00)

Daily predictions for brighter satellites

Satellite Brightness Start Highest point End
(mag) Time Altitude Azimuth Time Altitude Azimuth Time Altitude Azimuth
Cosmos 1833 Rocket 3.4 13:24:16 10° SSE 13:29:09 31° ESE 13:34:00 10° NE
MOS 1 Rocket 3.8 13:25:14 10° NNE 13:30:22 48° E 13:35:15 10° S
Cosmos 1151 Rocket 3.8 13:28:35 10° NNE 13:32:22 31° E 13:36:11 10° SSE
YAOGAN 1 2.5 13:29:00 10° SSE 13:33:18 74° E 13:37:36 10° N
Cosmos 2366 rocket 4.1 13:32:43 10° S 13:38:51 56° E 13:44:55 10° NNE
CZ-4 R/B 1.9 13:38:10 10° S 13:41:57 59° W 13:45:48 10° NNW
Cosmos 1633 2.4 13:40:08 10° S 13:43:40 89° E 13:47:12 10° N
Cosmos 1408 Rocket 4.1 13:42:22 10° SSW 13:46:47 63° W 13:51:11 10° N
Yuri Rocket 2.9 13:42:07 10° WSW 13:46:52 85° SSE 13:51:01 10° ENE
SL-8 Rocket 4.1 13:43:51 10° S 13:50:00 84° W 13:56:11 10° N
Cosmos 1743 Rocket 3.5 13:47:46 10° S 13:52:07 63° E 13:56:30 10° NNE
Ariane Rocket 4.1 13:52:54 16° ESE 13:55:35 25° ENE 13:59:38 10° NNE
Sich 1 4.5 13:56:25 18° E 13:56:40 18° E 13:59:41 10° NE
Centaur D AC-29 3.3 13:54:03 10° SW 13:59:29 53° SE 23:41:47 10° ESE
Cosmos 407 Rocket 3.8 13:55:06 10° S 14:00:09 44° E 14:05:11 10° NNE
HJ-1C 3.3 13:57:33 10° SSE 14:00:53 89° ESE 14:04:14 10° N
Cosmos 1606 3.4 13:57:57 10° NNW 14:01:41 55° W 14:05:21 10° S
CZ-2C R/B 2.8 13:59:31 10° SSE 14:04:33 86° E 14:09:23 10° N
Cosmos 1782 3.6 14:02:47 10° NNE 14:06:22 31° E 14:07:18 28° ESE
ATLAS 5 CENTAUR R/B 3.1 14:04:37 10° S 14:06:15 16° SSE 14:06:15 16° SSE
SL-08 R/B 4.4 14:03:41 10° S 14:09:55 66° E 14:16:03 10° NNE
Sakura Rocket 4.3 14:03:07 10° WNW 14:10:03 51° NNE 14:13:11 23° E
Cosmos 1933 3.6 14:06:14 10° N 14:10:18 70° W 14:14:21 10° S
Cosmos 1500 Rocket 3.7 14:06:33 10° S 14:10:50 73° W 14:15:08 10° N
GPS 2-15 Rocket1 4.5 14:07:23 10° SSW 14:10:51 21° SSE 14:11:14 20° SSE
GPS 2-17 Rocket1 3.5 14:06:42 10° WNW 14:11:05 51° N 14:13:34 23° ENE
CZ-3B R/B 3.9 14:07:44 10° WNW 14:11:21 63° NNE 14:17:21 21° E
COSMOS 2406 4.2 14:10:47 10° SSW 14:16:19 50° WNW 14:21:53 10° N
Cosmos 1441 Rocket 3.3 14:14:50 27° SSE 14:16:34 48° E 14:20:15 10° NNE
Aureole 1 Rocket 4.4 14:13:26 18° SSE 14:16:51 35° E 14:23:01 10° NE
CSL-04 Rocket 4.4 14:14:04 10° S 14:19:13 52° WSW 14:24:22 10° NNW
Cosmos 1140 Rocket 3.5 14:15:50 10° S 14:20:55 55° ESE 14:26:01 10° NNE
Cosmos 1023 Rocket 4.4 14:19:27 10° S 14:24:38 64° ESE 14:29:50 10° NNE
H-2A R/B 2.3 14:19:41 10° S 14:24:57 70° WSW 14:30:04 10° NNW
Meteor 1-26 Rocket 4.1 14:19:55 10° N 14:25:21 84° W 14:30:32 11° S
Cosmos 2082 Rocket 2.1 14:20:21 10° S 14:25:58 65° ESE 14:31:36 10° NNE
BREEZE-M DEB (TANK) 4.4 14:25:36 10° S 14:29:21 39° ESE 14:40:42 10° NE
NOSS 3-2 (A) 3.0 14:25:44 10° SSW 14:31:03 70° ESE 14:36:40 10° NNE
ARGOS 3.2 14:28:43 15° S 14:33:11 80° WSW 14:38:34 10° NNW
Cosmos 1805 Rocket 3.5 14:30:37 15° S 14:34:14 89° WNW 14:38:39 10° N
IRS-1A Rocket 4.1 14:34:30 34° SSE 14:36:59 73° ENE 14:42:38 10° N
CZ-2C R/B 3.5 14:34:55 10° NNE 14:39:27 89° ESE 14:42:03 25° SSW
Delta 202 3.8 14:40:21 10° W 14:47:01 72° N 14:48:23 51° ENE
SPOT 3 Rocket 4.5 14:51:24 33° NE 14:51:24 33° NE 14:54:55 10° N
CZ-2C R/B 3.9 14:45:57 10° N 14:50:45 39° WNW 14:55:38 10° SW
Meteor 2-6 Rocket 4.1 14:45:25 10° N 14:50:59 63° E 14:51:18 62° E
Cosmos 972 Rocket 4.2 14:50:20 10° N 14:54:13 50° NNE 14:54:13 50° NNE
IRIDIUM 104 4.4 14:52:54 33° SSW 14:55:14 73° W 15:00:26 10° N
Gbstr 26 Del rocket 3.6 14:52:22 10° NW 14:55:03 46° NW 14:55:03 46° NW
Cosmos 676 Rocket 3.9 14:57:19 72° NE 14:57:19 72° NE 15:02:10 10° NNE
SJ-6B 3.5 14:59:50 55° WNW 14:59:50 55° WNW 15:03:21 10° NNW
MetOp-A 4.0 15:01:44 86° SE 15:01:52 88° ENE 15:07:13 10° NNW
Cosmos 1934 Rocket 4.0 15:03:11 64° ENE 15:03:11 64° ENE 15:09:05 10° NNE
Cosmos 1727 Rocket 4.2 15:03:32 10° N 15:09:49 68° W 15:11:54 43° SSW
ATLAS 5 CENTAUR R/B 3.2 15:11:05 10° N 15:16:11 44° NE 15:16:11 44° NE
Cosmos 2228 Rocket 4.4 15:13:48 10° NNW 15:17:11 37° WNW 15:17:11 37° WNW
Resurs 01 Rocket 4.0 15:21:56 15° N 15:21:56 15° N 15:22:46 10° N
Meteor 1-10 Rocket 4.5 15:16:43 10° N 15:21:45 67° NW 15:21:45 67° NW
CZ-3A R/B 3.7 14:53:15 10° WNW 15:23:30 66° N 15:26:15 49° ENE
CENTAUR R/B 4.3 15:53:42 20° N 15:53:42 20° N 15:55:42 10° N
VEP-3 4.0 16:05:06 10° WNW 16:51:40 12° ESE 16:59:49 10° ESE
VEP-3 4.0 16:05:05 10° WNW 16:51:41 12° ESE 16:59:49 10° ESE
VEP-3 4.0 16:05:05 10° WNW 16:51:40 12° ESE 16:59:49 10° ESE
VEP-3 4.0 16:05:05 10° WNW 16:51:39 12° ESE 16:59:49 10° ESE
VEP-3 4.0 16:05:06 10° WNW 16:51:39 12° ESE 16:59:49 10° ESE
Centaur D-1AR AC-40 4.4 21:11:31 40° SE 21:11:31 40° SE 21:28:17 10° ESE
Hubble Space Telescope 3.9 21:41:55 13° NE 21:41:55 13° NE 21:42:25 10° NE
CZ-2C R/B 3.7 21:55:04 10° NE 21:58:58 35° E 21:58:58 35° E
Chandra Rocket (1) 4.4 21:58:07 46° SSW 22:00:37 52° SSE 22:06:25 10° E
Lacrosse 5 rocket 4.3 22:01:06 11° ESE 22:01:39 11° ESE 22:02:53 10° E
Cosmos 2058 Rocket 4.3 22:07:57 41° ENE 22:07:57 41° ENE 22:11:34 10° NNE
Cosmos 1844 Rocket 3.1 22:17:53 51° NNW 22:17:53 51° NNW 22:22:17 10° N
H-2A R/B 2.8 22:19:35 48° ENE 22:19:35 48° ENE 22:23:31 10° N
H-2A R/B (2) 3.7 22:21:23 13° N 22:21:40 13° N 22:23:19 10° NE
MSX 4.5 22:17:53 10° N 22:22:07 40° NW 22:22:07 40° NW
Meteosat 1 Rocket2 3.9 22:25:30 54° NW 22:25:58 56° NNW 22:30:34 10° NE
Cosmos 1300 4.3 22:30:47 27° N 22:30:47 27° N 22:32:36 10° N
Atlas Centaur 2 4.0 22:27:21 23° NW 22:30:26 32° N 22:37:28 10° NE
SL-4 R/B 3.7 22:35:18 20° SE 22:35:18 20° SE 22:36:34 10° SE
Cosmos 1603 3.5 22:31:18 10° NNW 22:36:56 67° WSW 22:42:31 10° S
Cosmos 1825 Rocket 3.4 22:37:14 10° N 22:41:18 72° WNW 22:41:18 72° WNW
Cosmos 724 4.2 22:35:54 10° NNW 22:41:58 69° WSW 22:48:06 10° SSE
ATLAS 3B CENTAUR R/B 3.4 22:34:00 10° WNW 22:44:34 48° N 22:49:18 10° E
CZ-3B R/B 4.2 22:21:47 10° WNW 22:44:56 56° SW 22:51:41 10° SE
GPS 2-18 Rocket1 3.3 22:45:16 59° N 22:45:21 59° N 22:48:58 10° E
ATLAS 2A CENTAUR R/B 1.6 22:45:12 45° NNE 22:45:21 46° NNE 22:50:36 10° ESE
SWIFT 3.8 22:48:17 24° SSE 22:48:34 24° SSE 22:51:59 10° ESE
USA 281 3.4 22:43:01 10° N 22:49:19 51° WNW 22:51:43 35° WSW
Meteor 2-15 Rocket 4.4 22:47:33 34° SSW 22:50:06 61° W 22:56:05 10° N
Cosmos 1953 Rocket 3.5 22:45:47 10° N 22:50:14 84° E 22:54:40 10° S
ADEOS 3.4 22:45:57 10° N 22:51:11 85° W 22:54:20 24° SSW
GPS 2-15 Rocket1 3.4 22:51:42 46° SW 22:52:09 48° SSW 22:56:54 10° ESE
ERS-2 1.9 22:54:15 66° W 22:54:15 66° W 22:57:44 10° NNW
Cosmos 1386 Rocket 4.3 22:49:04 10° N 22:55:04 80° W 23:01:06 10° S
SeaSat 1 4.0 22:52:52 10° NNW 22:55:52 19° NW 22:55:52 19° NW
Cosmos 1943 3.3 22:54:32 10° NNW 22:59:54 47° WSW 23:05:16 10° S
Landsat 5 3.9 23:01:18 35° WNW 23:01:18 35° WNW 23:04:09 10° NNW
Meteor 2-10 Rocket 4.1 22:59:33 10° S 23:04:27 55° E 23:09:31 10° NNE
ALOS 2.3 23:07:43 10° NNE 23:12:23 85° E 23:17:03 10° S
Meteor 1-31 Rocket 2.6 23:09:07 10° N 23:12:56 86° WNW 23:16:25 12° SSW
Cosmos 1745 Rocket 4.2 23:08:39 10° NNW 23:14:31 46° W 23:20:21 10° SSW
TSX-5 3.2 23:12:36 24° SSW 23:14:37 83° WNW 23:17:49 10° NNE
CZ-4B R/B 3.7 23:10:54 10° NNE 23:15:14 56° E 23:19:25 10° S
Cosmos 1484 Rocket 2.6 23:12:28 10° N 23:16:10 69° WNW 23:19:17 14° SSW
Hubble Space Telescope 3.0 23:17:20 10° NW 23:20:08 17° N 23:22:58 10° NE
SAR-Lupe-4 3.5 23:17:26 10° SSE 23:20:59 84° ENE 23:24:32 10° N
FALCON 9 DEB 3.1 23:18:01 10° NW 23:21:24 56° SW 23:24:46 10° SSE
FENGYUN 3A 3.6 23:18:48 10° N 23:24:08 71° WNW 23:29:28 10° SSW
Cosmos 1174 3.7 23:24:31 22° SW 23:26:24 50° WNW 23:30:15 10° N
Centaur D-1A AC-35 2.8 23:18:39 10° WNW 23:28:30 88° NNE 23:32:12 10° ESE
Cosmos 1892 3.9 23:25:48 10° N 23:29:28 45° E 23:33:05 10° SSE
Cosmos 1400 Rocket 2.7 23:25:53 10° S 23:29:51 89° WNW 23:33:46 10° N
CZ-4B R/B 1.4 23:29:17 10° S 23:32:34 54° WSW 23:35:47 10° NNW
Cosmos 1932 4.5 23:28:00 10° NNW 23:34:12 58° WSW 23:40:16 10° S
ATLAS 2A CENTAUR R/B 0.6 23:33:03 14° WNW 23:35:18 61° SSW 23:37:13 10° ESE
H-2A R/B 3.5 23:32:22 10° NNE 23:36:00 43° E 23:39:41 10° S
SAR-Lupe-1 4.0 23:32:37 10° S 23:36:09 58° WSW 23:39:40 10° NNW
CZ-2C R/B 4.1 23:35:16 10° NW 23:37:13 12° WNW 23:38:20 12° W
Cosmos 2058 3.7 23:34:25 10° N 23:38:31 56° E 23:42:38 10° SSE
Cosmos 1812 Rocket 3.8 23:34:31 10° SSW 23:38:41 47° W 23:42:50 10° N
Ariane H10+ 3.7 23:27:43 14° WSW 23:39:15 41° SSW 23:44:11 10° ESE
Lacrosse 5 rocket 2.0 23:36:47 13° SW 23:40:25 45° WNW 23:44:47 10° NNE
SEDSat Delta rocket 4.5 23:34:37 11° SW 23:41:00 57° SSE 23:47:37 10° ENE
ADEOS Rocket 3.6 23:35:05 10° SSE 23:42:20 88° WSW 23:50:05 10° NNW
Cosmos 1269 Rocket 4.0 23:38:53 10° NNW 23:44:10 87° WSW 23:49:28 10° SSE
GPS 2-12 Rocket1 3.2 23:39:58 13° WSW 23:44:13 80° SSE 23:49:02 10° E
Cosmos 2278 Rocket 2.4 23:43:03 10° SSW 23:48:33 53° WNW 23:54:04 10° N
Ariane H10+ 4.5 14:51:50 10° W 23:50:32 27° SW 23:55:30 10° SSE
Meteor PRIRODA 4.0 23:49:55 10° N 23:53:30 46° WNW 23:57:04 10° SSW
Cosmos 1315 Rocket 3.9 23:50:46 10° S 23:54:43 52° E 23:58:43 10° NNE
